Retour au catalogue

DELTA 1 DEB

ActifLEO
NORAD 7182·DEBRIS·🇺🇸 United States

Lancé Nov 6, 1973 depuis Vandenberg Space Force Base

Loading…

Prochains Passages (prochaines 24 heures)

TLE

FraisSource: Space-Track

Époque: Sep 13, 2026, 23:46 UTC

1 07182U 73086ET  26256.99096146  .00000195  00000-0  89072-3 0  9991
2 07182 102.5361  71.5515 0334276  60.7950  89.5679 12.77401704699263

Suivez DELTA 1 DEB en temps réel avec AllMySat

Download on the App Store